This is the latest recevied weather packets stored in our database for station/object N7WSS. If no packets are shown the sender has not sent any weather packets the latest 10 day(s).
| Time | Temp. | Humidity | Pressure | Rain* | Wind** | Luminosity | Snow |
|---|---|---|---|---|---|---|---|
| 1777571985 | 27.22° C | 16% | 1009.3 hPa | 0 mm | - | - | - |
| 1777571685 | 27.22° C | 16% | 1009.6 hPa | 0 mm | - | - | - |
| 1777571384 | 28.33° C | 15% | 1009.5 hPa | 0 mm | - | - | - |
| 1777571079 | 28.89° C | 16% | 1009.4 hPa | 0 mm | - | - | - |
| 1777570775 | 27.78° C | 16% | 1009.9 hPa | 0 mm | - | - | - |
| 1777570472 | 26.67° C | 17% | 1009.7 hPa | 0 mm | - | - | - |
| 1777570167 | 26.11° C | 18% | 1009.9 hPa | 0 mm | - | - | - |
| 1777569864 | 26.11° C | 17% | 1010 hPa | 0 mm | - | - | - |
| 1777569560 | 25.56° C | 18% | 1009.9 hPa | 0 mm | - | - | - |
| 1777569256 | 25° C | 18% | 1010.1 hPa | 0 mm | - | - | - |
| 1777568953 | 25° C | 19% | 1010.2 hPa | 0 mm | - | - | - |
| 1777568649 | 24.44° C | 19% | 1009.9 hPa | 0 mm | - | - | - |
| 1777568347 | 24.44° C | 18% | 1010.1 hPa | 0 mm | - | - | - |
| 1777568043 | 25° C | 18% | 1009.9 hPa | 0 mm | - | - | - |
| 1777567740 | 25° C | 19% | 1010.1 hPa | 0 mm | - | - | - |
| 1777567436 | 24.44° C | 19% | 1010.1 hPa | 0 mm | - | - | - |
| 1777567135 | 24.44° C | 19% | 1010.1 hPa | 0 mm | - | - | - |
| 1777566832 | 25° C | 19% | 1010 hPa | 0 mm | - | - | - |
| 1777566530 | 24.44° C | 18% | 1010.1 hPa | 0 mm | - | - | - |
| 1777566227 | 23.89° C | 19% | 1010.2 hPa | 0 mm | - | - | - |
| 1777565924 | 23.89° C | 19% | 1010.2 hPa | 0 mm | - | - | - |
| 1777565619 | 23.89° C | 20% | 1010.1 hPa | 0 mm | - | - | - |
| 1777565316 | 23.33° C | 20% | 1010 hPa | 0 mm | - | - | - |
| 1777565012 | 23.33° C | 21% | 1010 hPa | 0 mm | - | - | - |
| 1777564708 | 22.78° C | 20% | 1010.1 hPa | 0 mm | - | - | - |
* Rain latest hour (hover to see other rain measurements)
** Current wind speed in m/s (hover to see current wind gust speed)